Location: Laura�t
(43.9341°N, 0.2497°E)
Time: 23:14:11
(UTC+00:00)

CZ-2C R/B - Pass Details

Date: 03 March 2021
Orbit: 783 x 871 km, 98.2° (Epoch: 17 April)

Event Time Altitude Azimuth Distance (km) Brightness Sun altitude
Rises 19:41:59 0° 8° (N) 3,431 5.9 -20.8°
Reaches altitude 10° 19:44:27 10° 3° (N) 2,479 5.2 -21.3°
Maximum altitude 19:49:44 50° 290° (WNW) 1,048 3.5 -22.2°
Drops below altitude 10° 19:54:52 10° 216° (SW) 2,407 5.3 -23.1°
Sets 19:57:14 0° 211° (SSW) 3,322 6.0 -23.5°
